Location: Melbourne
(37.8170°S, 144.9670°E)
Time: 10:39:20
(UTC+10:00)

ISS - All Passes

Search period start: 28 April 2017 00:00
Search period end: 08 May 2017 00:00
Orbit: 401 x 409 km, 51.6° (Epoch: 28 April)

Date Brightness Start Highest point End Pass type
(mag) Time Alt. Az. Time Alt. Az. Time Alt. Az.
28 Apr - 00:29:26 10° S 00:30:18 11° SSE 00:31:09 10° SSE night (unlit)
28 Apr - 02:04:23 10° SW 02:07:34 37° SE 02:10:43 10° ENE night (unlit)
28 Apr - 03:41:18 10° W 03:43:53 21° NW 03:46:27 10° N night (unlit)
28 Apr - 18:43:13 10° NNW 18:46:08 29° NE 18:49:04 10° ESE visible
28 Apr - 20:19:37 10° W 20:22:36 29° SSW 20:25:36 10° SSE visible
29 Apr - 01:12:34 10° SSW 01:15:21 23° SSE 01:18:06 10° E night (unlit)
29 Apr - 02:48:46 10° WSW 02:51:58 41° NW 02:55:07 10° NNE night (unlit)
29 Apr - 17:52:19 10° NNE 17:54:15 15° NE 17:56:11 10° E daylight
29 Apr - 19:27:10 10° WNW 19:30:25 51° SW 19:33:43 10° SE visible
29 Apr - 21:06:05 10° SW 21:07:33 12° SSW 21:09:01 10° S night (unlit)
30 Apr - 00:20:52 10° SSW 00:23:03 16° SSE 00:25:13 10° ESE night (unlit)
30 Apr - 01:56:34 10° SW 01:59:57 88° NW 02:03:17 10° NE night (unlit)
30 Apr - 18:35:00 10° NW 18:38:19 80° NE 18:41:41 10° SE visible
30 Apr - 20:12:55 10° WSW 20:15:10 17° SSW 20:17:27 10° SSE visible
30 Apr - 23:29:20 10° S 23:30:38 12° SSE 23:31:59 10° SE night (unlit)
01 May - 01:04:33 10° SW 01:07:50 47° SE 01:11:04 10° ENE night (unlit)
01 May - 02:41:52 10° W 02:44:02 16° NW 02:46:11 10° N night (unlit)
01 May - 17:43:12 10° NNW 17:46:17 37° NE 17:49:25 10° ESE daylight
01 May - 19:20:02 10° W 19:22:52 24° SSW 19:25:42 10° SSE visible
02 May - 00:12:39 10° SSW 00:15:37 27° SSE 00:18:32 10° E night (unlit)
02 May - 01:49:04 10° WSW 01:52:07 32° NW 01:55:06 10° NNE night (unlit)
02 May - 16:51:56 10° N 16:54:20 19° NE 16:56:46 10° E daylight
02 May - 18:27:26 10° WNW 18:30:37 40° SW 18:33:49 10° SE visible
02 May - 20:06:47 10° SW 20:07:50 11° SSW 20:08:53 10° S visible
02 May - 23:20:52 10° SSW 23:23:17 18° SSE 23:25:42 10° ESE night (unlit)
03 May - 00:56:44 10° SW 01:00:05 67° NW 01:03:24 10° NE night (unlit)
03 May - 17:35:07 10° NW 17:38:26 79° SW 17:41:48 10° SE daylight
03 May - 19:13:24 10° WSW 19:15:24 15° SSW 19:17:24 10° SSE visible
03 May - 22:29:12 10° S 22:30:53 13° SSE 22:32:34 10° SE night (unlit)
04 May - 00:04:37 10° SW 00:07:58 60° SE 00:11:16 10° ENE night (unlit)
04 May - 01:42:33 10° W 01:44:04 13° NW 01:45:34 10° NNW night (unlit)
04 May - 16:43:07 10° NNW 16:46:20 49° NE 16:49:36 10° ESE daylight
04 May - 18:20:23 10° W 18:23:01 21° SSW 18:25:39 10° SSE visible
04 May - 21:38:08 10° S 21:38:24 10° SSE 21:38:41 10° SSE night (unlit)
04 May - 23:12:38 10° SW 23:15:44 32° SSE 23:18:48 10° E night (unlit)
05 May - 00:49:20 10° WSW 00:52:08 25° NW 00:54:54 10° N night (unlit)
05 May - 15:51:35 10° N 15:54:20 24° NE 15:57:05 10° ESE daylight
05 May - 17:27:38 10° W 17:30:42 33° SSW 17:33:47 10° SE daylight
05 May - 19:07:40 10° SSW 19:08:01 10° SSW 19:08:22 10° S visible
05 May - 22:20:46 10° SSW 22:23:25 21° SSE 22:26:02 10° ESE night (unlit)
05 May - 23:56:49 10° WSW 00:00:06 50° NW 00:03:20 10° NNE night (unlit)
06 May - 15:00:59 10° NNE 15:02:22 12° NE 15:03:45 10° ENE daylight
06 May - 16:35:10 10° WNW 16:38:27 61° SW 16:41:47 10° SE daylight
06 May - 18:13:50 10° SW 18:15:31 13° SSW 18:17:12 10° S visible
06 May - 21:29:01 10° SSW 21:31:00 15° SSE 21:32:58 10° ESE night (unlit)
06 May - 23:04:36 10° SW 23:07:58 77° SE 23:11:18 10° NE night (unlit)
07 May - 15:43:01 10° NW 15:46:17 65° NE 15:49:37 10° SE daylight
07 May - 17:20:39 10° WSW 17:23:04 18° SSW 17:25:30 10° SSE daylight
07 May - 20:37:30 10° S 20:38:30 11° SSE 20:39:30 10° SSE night (unlit)
07 May - 22:12:31 10° SW 22:15:44 40° SE 22:18:55 10° ENE night (unlit)
07 May - 23:49:32 10° W 23:52:01 19° NW 23:54:29 10° N night (unlit)
